Flag for U.S.A. Weather past 2 weeks in Sedona, Arizona, U.S.A.

Now
39 °F

Sunny.


Feels Like: 39 °F
Forecast: 27 / 46 °F
Wind: No wind

Location: Sedona Airport

Current Time: Dec 28, 2014 at 3:28:04 PM

Latest Report: Dec 28, 2014 at 2:35 PM


Visibility: 10 mi

Pressure: 30.15 "Hg

Humidity: 36%

Dew point: 14 °F

Location of SedonaLocation

Historic Weather in Sedona — Graph

°F

Sedona temperature yesterday

Maximum temperature yesterday: 43 °F (at 1:55 PM)
Minimum temperature yesterday: 28 °F (at 6:55 AM)
Average temperature yesterday: 35 °F

Past Weeks' High & Low Weather Summary

 TemperatureHumidityPressure
High63 °F (Dec 22, 1:35 PM)100% (Dec 17, 5:15 AM)30.30 "Hg (Dec 17, 5:15 AM)
Low27 °F (Dec 26, 3:15 AM)21% (Dec 23, 3:55 PM)29.65 "Hg (Dec 25, 1:15 PM)
Average41 °F58%30.07 "Hg
* Reported Dec 13 2:15 PM — Dec 28 2:15 PM, Sedona, Weather by CustomWeather, © 2014

Note: Actual official high and low records may vary slightly from our data, if they occured in-between our weather recording intervals... More about our weather records

Advertising

Sedona weather history for previous 24 hours

 ConditionsComfort  
Time TempWeatherWind HumidityBarometerVisibility
2:15 PM
Dec 28
41 °FSunny.3 mph33%30.15 "Hg10 mi
1:55 PM41 °FSunny.No wind33%30.15 "Hg10 mi
1:35 PM41 °FSunny.No wind33%30.16 "Hg10 mi
1:15 PM41 °FSunny.No wind33%30.16 "Hg10 mi
12:55 PM41 °FSunny.3 mph36%30.16 "Hg10 mi
12:15 PM37 °FSunny.No wind38%30.20 "Hg10 mi
11:55 AM37 °FSunny.No wind41%30.22 "Hg10 mi
11:35 AM37 °FSunny.5 mph41%30.22 "Hg10 mi
11:15 AM37 °FSunny.3 mph38%30.23 "Hg10 mi
10:55 AM37 °FSunny.6 mph41%30.24 "Hg10 mi
10:15 AM36 °FSunny.5 mph44%30.24 "Hg10 mi
9:55 AM34 °FSunny.No wind48%30.23 "Hg10 mi
9:35 AM32 °FSunny.No wind51%30.23 "Hg10 mi
9:15 AM32 °FSunny.3 mph55%30.23 "Hg10 mi
8:55 AM32 °FSunny.3 mph47%30.24 "Hg10 mi
8:35 AM32 °FSunny.5 mph47%30.24 "Hg10 mi
8:15 AM32 °FSunny.5 mph47%30.23 "Hg10 mi
7:55 AM30 °FSunny.7 mph51%30.23 "Hg10 mi
7:35 AM28 °FSunny.7 mph55%30.23 "Hg10 mi
7:15 AM28 °FClear.6 mph55%30.23 "Hg10 mi
6:55 AM28 °FClear.5 mph55%30.23 "Hg10 mi
6:35 AM28 °FClear.5 mph55%30.23 "Hg10 mi
6:15 AM28 °FClear.6 mph55%30.23 "Hg10 mi
5:55 AM28 °FClear.3 mph55%30.23 "Hg10 mi
5:35 AM28 °FClear.5 mph55%30.22 "Hg10 mi
5:15 AM30 °FClear.6 mph51%30.23 "Hg10 mi
4:55 AM30 °FClear.7 mph51%30.23 "Hg10 mi
4:35 AM30 °FClear.3 mph51%30.23 "Hg10 mi
4:15 AM30 °FClear.6 mph51%30.23 "Hg10 mi
3:55 AM30 °FClear.9 mph51%30.24 "Hg10 mi
3:15 AM30 °FClear.7 mph51%30.25 "Hg10 mi
2:55 AM28 °FClear.10 mph55%30.25 "Hg10 mi
2:35 AM30 °FClear.8 mph51%30.26 "Hg10 mi
2:15 AM30 °FClear.8 mph51%30.25 "Hg10 mi
1:55 AM30 °FClear.8 mph47%30.25 "Hg10 mi
1:15 AM32 °FClear.6 mph44%30.24 "Hg10 mi
12:55 AM32 °FClear.9 mph44%30.24 "Hg10 mi
12:35 AM32 °FClear.9 mph44%30.26 "Hg10 mi
12:15 AM32 °FClear.13 mph44%30.27 "Hg10 mi
11:55 PM
Dec 27
32 °FClear.10 mph44%30.28 "Hg10 mi
11:35 PM32 °FClear.12 mph44%30.28 "Hg10 mi
11:15 PM32 °FClear.14 mph44%30.28 "Hg10 mi
10:55 PM32 °FClear.13 mph44%30.30 "Hg10 mi
10:35 PM32 °FClear.12 mph44%30.30 "Hg10 mi
10:15 PM32 °FClear.10 mph44%30.29 "Hg10 mi
9:55 PM32 °FClear.13 mph44%30.28 "Hg10 mi
9:35 PM32 °FClear.12 mph44%30.28 "Hg10 mi
9:15 PM34 °FClear.10 mph41%30.28 "Hg10 mi
8:35 PM34 °FClear.10 mph41%30.29 "Hg10 mi
8:15 PM34 °FClear.8 mph41%30.28 "Hg10 mi
7:55 PM34 °FClear.12 mph41%30.28 "Hg10 mi
7:35 PM34 °FClear.10 mph41%30.28 "Hg10 mi
7:15 PM36 °FClear.8 mph38%30.28 "Hg10 mi
6:55 PM36 °FClear.9 mph38%30.27 "Hg10 mi
6:35 PM36 °FClear.10 mph38%30.27 "Hg10 mi
6:15 PM36 °FClear.8 mph35%30.26 "Hg10 mi
5:55 PM36 °FClear.8 mph35%30.25 "Hg10 mi
5:35 PM36 °FClear.6 mph38%30.25 "Hg10 mi
5:15 PM37 °FSunny.No wind35%30.24 "Hg10 mi
4:55 PM39 °FSunny.6 mph33%30.24 "Hg10 mi
4:35 PM41 °FSunny.No wind28%30.24 "Hg10 mi
4:15 PM41 °FSunny.3 mph28%30.24 "Hg10 mi
3:55 PM41 °FSunny.5 mph28%30.24 "Hg10 mi
3:35 PM41 °FSunny.6 mph28%30.23 "Hg10 mi
3:15 PM43 °FSunny.6 mph29%30.23 "Hg10 mi
Weather by CustomWeather, © 2014

See weather overviewHow to use our weather pages